Regional Weather Roundup
Issued by NWS

Home | Current Version | Previous Version | Text Only | Print | Product List | Glossary Off
Versions: 1 2 3 4 5 6 7 8 9 10 11 12 13 14 15 16 17 18 19 20 21 22 23 24 25 26 27 28 29 30 31 32 33 34 35 36 37 38 39 40 41 42 43 44 45 46 47 48 49 50

000
ASUS43 KMPX 031910
RWRMN
WEATHER ROUNDUP FOR MINNESOTA
NATIONAL WEATHER SERVICE TWIN CITIES/CHANHASSEN MN
200 PM CDT SUN MAY 03 2015


NOTE: "FAIR" INDICATES FEW OR NO CLOUDS BELOW 12,000 FEET WITH NO
SIGNIFICANT WEATHER AND/OR OBSTRUCTIONS TO VISIBILITY. N/A MEANS
CURRENT SKY AND/OR WEATHER CONDITIONS ARE NOT AVAILABLE.

MNZ060>063-068>070-032000-
   Twin Cities Metro

CITY           SKY/WX    TMP DP  RH WIND       PRES   REMARKS
TWIN CITIES    MOSUNNY   80  56  43 S7        29.77F
ST PAUL        SUNNY     80  56  43 N6        29.77F
CRYSTAL        SUNNY     80  54  40 VRB5      29.77F
BLAINE         SUNNY     79  55  44 W5        29.78F
LAKEVILLE      MOSUNNY   79  55  44 SW7       29.77F
EDEN PRAIRIE   MOSUNNY   79  55  43 SW5       29.76F
SOUTH ST PAUL  SUNNY     79  53  40 SE3       29.77F
LAKE ELMO      FAIR      77  55  47 W5        29.79F
$$
MNZ001>005-007-008-013>017-022>024-027-028-032000-
   Northwest Minnesota

CITY           SKY/WX    TMP DP  RH WIND       PRES   REMARKS
BEMIDJI        CLOUDY    61  34  37 NW14      29.88S
HALLOCK        MOSUNNY   66  21  18 NW20G26   29.87S
ROSEAU         PTSUNNY   64  27  24 W17G26    29.85S
WARROAD        PTSUNNY   64  34  32 W18G24    29.84F
THIEF RVR FALL CLOUDY    63  30  29 NW17G26   29.89S
CROOKSTON      CLOUDY    64  28  25 N18G25    29.90S
DETROIT LAKES  CLOUDY    63  34  34 N16G22    29.92R
MOORHEAD       CLOUDY    64  23  20 N16       29.92R
PARK RAPIDS    CLOUDY    66  33  29 N15       29.88S
MAHNOMEN       FAIR      62  20  20 N16G23    29.90F
$$
MNZ006-009>011-018-025>026-032000-
   North Central Minnesota

CITY           SKY/WX    TMP DP  RH WIND       PRES   REMARKS
BAUDETTE       CLOUDY    62  33  33 W17G25    29.84R
FLAG ISLAND    PTSUNNY   61  30  31 W25G32    29.80S
INTL FALLS     CLOUDY    64  30  27 NW20      29.83R
WASKISH        CLOUDY    63  39  42 W13       29.86S
BIG FORK       LGT RAIN  64  34  32 W6        29.85R
LONGVILLE      CLOUDY    66  36  32 NW13G22   29.87R
GRAND RAPIDS   PTSUNNY   68  34  28 NW18G28   29.85R
CRANE LAKE     CLOUDY    64  28  25 W10G18    29.83R
COOK           CLOUDY    66  36  32 W12G21    29.83R
WALKER         FAIR      62  33  33 NW9G16    29.88S
$$
MNZ012-019>021-037-032000-
   Northeast Minnesota

CITY           SKY/WX    TMP DP  RH WIND       PRES   REMARKS
DULUTH         CLOUDY    76  40  27 W10G20    29.78S
ELY            PTSUNNY   73  28  19 W20G29    29.79R
HIBBING        PTSUNNY   75  32  20 NW20G30   29.81R
EVELETH        PTSUNNY   72  32  23 W17G25    29.83R
DULUTH HARBOR  CLOUDY    75  45  33 W10       29.76S
TWO HARBORS    CLOUDY    82  48  30 W3        29.74S
SILVER BAY     PTSUNNY   81  36  19 W8        29.73R
GRAND MARAIS     N/A     47  40  76 W9        29.74S
G MARAIS ARPRT PTSUNNY   75  30  19 NW10G17   29.77R
$$
MNZ029>031-032-039>041-046>048-054>057-064-032000-
   West Central Minnesota

CITY           SKY/WX    TMP DP  RH WIND       PRES   REMARKS
FERGUS FALLS   PTSUNNY   66  37  34 N14G22    29.91R
WHEATON        PTSUNNY   63  36  36 N17       29.92R
MORRIS         MOSUNNY   72  37  28 N25G36    29.86R
ALEXANDRIA     CLOUDY    68  39  34 N20G25    29.88R
ELBOW LAKE     FAIR      65  38  36 N20G25    29.89R
WADENA         CLOUDY    64  39  39 N10G17    29.87R
GLENWOOD       MOSUNNY   70  41  35 VRB16G26  29.85R
APPLETON       PTSUNNY   73  36  25 N28       29.84R
BENSON         CLOUDY    72  30  21 NE24G31   29.85R
ORTONVILLE     PTSUNNY   70  37  30 N26G35    29.89R
MADISON        CLOUDY    72  37  28 N25G33    29.86R
WILLMAR        FAIR      75  57  53 N12G20    29.82R
$$
MNZ033>034-036-042>043-049>051-058-059-032000-
   Central Minnesota

CITY           SKY/WX    TMP DP  RH WIND       PRES   REMARKS
ST CLOUD       MOSUNNY   74  58  57 N7        29.80F
SAUK CENTRE    MOCLDY    71  42  35 N18       29.83R
PAYNESVILLE    MOSUNNY   73  53  49 NW6       29.81S
AITKIN         CLOUDY    72  34  25 NW13      29.80F
PINE RIVER     CLOUDY    68  41  37 N13G20    29.89R
BRAINERD         N/A     67  53  61 VRB3      29.83S
STAPLES        CLOUDY    66  36  32 NW16      29.85R
LONG PRAIRIE   PTSUNNY   72  39  30 NW15G22   29.85R
LITTLE FALLS   PTSUNNY   73  39  29 N12G18    29.82S
LITCHFIELD     SUNNY     75  57  53 N10       29.79F
BUFFALO        SUNNY     74  54  50 NW8       29.80F
MAPLE LAKE     SUNNY     74  57  54 N7        29.81F
$$
MNZ037-044-045-052-053-032000-
   East Central Minnesota

CITY           SKY/WX    TMP DP  RH WIND       PRES   REMARKS
PRINCETON        N/A     73  54  49 CALM      29.81S
MORA           PTSUNNY   73  52  46 CALM      29.81F
CAMBRIDGE      PTSUNNY   75  57  53 CALM      29.79S
RUSH CITY      PTSUNNY   72  54  52 CALM      29.81S
MOOSE LAKE     CLOUDY    75  45  33 N9        29.77F
HINCKLEY       FAIR      77  54  44 W6        29.79S
CLOQUET        CLOUDY    75  32  20 W9        29.79S
MCGREGOR       CLOUDY    66  43  42 SW5       29.83R
$$
MNZ071>073-080-081-089-090-097-098-032000-
   Southwest Minnesota

CITY           SKY/WX    TMP DP  RH WIND       PRES   REMARKS
MONTEVIDEO     PTSUNNY   77  45  31 NE21G32   29.83R
GRANITE FALLS  CLOUDY    76  55  47 NW17      29.82R
CANBY          CLOUDY    70  39  32 N21G32    29.87R
MARSHALL       PTSUNNY   73  54  49 N23G29    29.81R
REDWOOD FALLS  SUNNY     79  54  41 W7        29.77S
OLIVIA         SUNNY     73  52  46 N8G16     29.77S
PIPESTONE      MOSUNNY   77  54  44 NE14G23   29.81R
WINDOM         MOSUNNY   82  50  32 CALM      29.77F
WORTHINGTON    MOSUNNY   81  52  36 W6        29.77F
JACKSON        MOSUNNY   82  45  26 S7        29.78F
TRACY          MOSUNNY   79  55  43 N13G18    29.80S
SLAYTON        MOSUNNY   77  53  43 N15G24    29.80S
$$
MNZ065>067-074>077-082>085-091>093-032000-
   South Central Minnesota

CITY           SKY/WX    TMP DP  RH WIND       PRES   REMARKS
MANKATO        SUNNY     81  52  36 SW9       29.77S
NEW ULM        SUNNY     81  52  36 NW5       29.75S
ST JAMES       SUNNY     84  48  28 S7        29.76F
FAIRMONT       SUNNY     82  50  32 SW5       29.77F
GLENCOE        SUNNY     82  56  42 SW6       29.75F
FARIBAULT      SUNNY     81  52  36 W8        29.78F
OWATONNA       SUNNY     81  48  32 CALM      29.78F
WASECA         SUNNY     79  48  34 SW8       29.79S
ALBERT LEA     SUNNY     81  48  32 SE6       29.78F
$$
MNZ078>079-086>088-094>096-032000-
   Southeast Minnesota

CITY           SKY/WX    TMP DP  RH WIND       PRES   REMARKS
ROCHESTER      SUNNY     80  51  36 NW8G16    29.81S
RED WING       SUNNY     81  52  36 S7        29.77F
STANTON        SUNNY     81  52  36 W10       29.76F
DODGE CENTER   SUNNY     79  50  36 W3        29.80S
WINONA         SUNNY     79  52  38 SW6       29.79F
AUSTIN         SUNNY     79  50  36 SW7G24    29.79F
PRESTON        SUNNY     78  50  36 S9        29.82S
$$
ABBREVIATIONS USED IN REMARKS
   TC - TEMPERATURES IN CELSIUS
  WCI - WIND CHILL INDEX
   HX - HEAT INDEX
  VSB - VISIBILITY
$$



USA.gov is the U.S. government's official web portal to all federal, state and local government web resources and services.